STARLINK-4558 (53426 NORAD) Tracking and Keplerian Element Data

This shows tracking and keplerian element data for the satellite.

Feedback or suggestion? Click here.




ElementValue
Catalog53426
NameSTARLINK-4558
Epoch Orbit130
Epoch Day269.91667824
Epoch Year2022
RAAN11.863
Inclination53.2166
Eccentricity0.0002785
Argument of Perigee15.6457
Mean Anonmoly74.792
Mean Motion15.73289019
Decay Rate-0.0015531
L11 53426U 22097AQ 22269.91667824 -.00155310 00000+0 -11181-2 0 9994
L22 53426 53.2166 11.8630 0002785 15.6457 74.7920 15.73289019 1302

Live tracking and technical data element details for STARLINK-4558 (NORAD 53426). STARLINK-4558 can be tracked NOW for your location showing map with azimuth and elevation plus other details from your city location.

Track the satellite on the map from your city or location and see movement details for azimuth, elevation, latitude, longitude, range, height, and movement on the map or in text.







IsCatalogInMostPopularTable: catalog: 53426, numindb: 2
Update: records affected: 1



GetName: 53426 STARLINK-4558

Hit Count: updated at: Fri, 30 Sep 2022 04:06:36 GMT